Dewpoint
69 70 70 69 70 69 69 69 68 68 67 67 69 69 67 67 64 65 70 71 71 72 72 71 72 73 73 73 73 73 74 73 74 74 74 73 73 74 73 74 74 73 73 73 73 73 73 73 73 73 71 71 72 72 72 72 71 71 70 70 69 69 67 66 65 66 67 69 70 70 72 72 72 71 72 72 72 73 73 73 73 73 73 73 73
69 70 70 70 69 69 69 69 69 68 67 66 67 69 69 68 67 66 67 69 71 71 71 71 72 72 73 73 73 73 74 73 74 73 74 74 73 74 74 73 73 73 74 73 73 73 73 73 72 73 73 72 72 72 73 73 72 71 71 72 70 70 70 68 67 65 66 68 69 71 72 73 72 71 71 72 72 73 73 73 74 73 73 74 74
68 69 70 70 69 69 69 69 69 68 67 66 66 66 69 69 69 68 67 67 70 70 70 71 71 72 73 73 73 73 74 73 74 73 74 74 73 73 74 73 73 72 73 73 73 73 73 73 72 72 73 73 73 73 73 72 72 72 71 72 71 71 71 69 67 67 67 68 69 70 70 71 71 72 72 73 73 73 73 73 73 73 74 74 74
69 69 69 69 69 69 69 69 68 68 67 66 66 65 66 69 70 69 68 67 67 70 70 70 71 71 72 73 73 73 73 74 74 74 73 74 74 73 74 73 73 72 72 72 73 73 73 73 73 73 73 73 72 72 73 73 72 72 71 71 71 71 71 72 70 68 68 68 68 70 70 69 71 72 73 74 74 73 73 73 74 74 74 75 74
69 69 69 69 69 69 69 68 68 68 67 66 66 65 65 66 69 70 69 68 67 68 70 71 71 71 71 72 73 73 73 73 73 73 73 74 74 73 73 74 74 73 72 72 74 72 72 72 73 74 73 73 72 72 72 72 72 72 72 72 72 72 72 72 72 71 70 69 69 69 70 70 71 72 73 73 73 73 73 73 74 74 73 74 75
70 70 70 69 69 69 69 68 68 68 67 67 66 65 65 65 66 69 70 69 68 67 68 70 71 71 71 71 73 73 73 73 73 73 73 73 74 73 73 73 74 74 73 73 73 73 72 72 72 73 73 73 72 73 73 73 72 72 71 71 71 71 71 71 71 71 71 70 69 69 69 71 71 71 71 72 72 72 72 72 72 72 72 74 75
70 70 70 70 70 70 69 69 68 68 68 67 67 66 65 65 65 66 69 69 69 67 66 69 71 71 71 71 71 72 73 73 73 73 73 73 73 73 73 73 73 73 74 73 73 73 73 72 73 73 73 73 73 73 73 73 73 72 72 72 72 72 71 71 71 70 70 70 70 71 71 71 71 72 71 72 72 72 72 71 70 71 73 73 73
71 71 70 70 70 70 70 69 69 68 68 68 67 66 66 66 65 66 68 68 68 68 66 67 69 71 71 71 71 72 72 72 73 73 73 73 73 73 73 73 73 73 73 73 73 73 74 74 73 73 73 73 73 73 73 73 73 73 73 73 72 72 71 71 71 71 71 70 70 71 69 70 69 70 70 70 70 70 70 70 70 72 73 72 72
71 71 71 71 71 71 71 70 70 69 69 69 68 67 67 66 66 66 67 68 68 68 67 66 68 70 71 71 71 71 72 72 73 73 73 73 73 73 73 73 73 73 73 73 73 73 73 74 74 74 74 76 75 74 74 74 73 72 73 73 72 72 72 71 71 71 70 70 71 70 70 71 71 71 71 69 69 70 69 72 71 71 72 72 73
71 71 71 71 72 72 72 71 71 70 69 69 69 68 67 67 67 66 66 67 68 68 67 67 67 68 70 71 71 72 72 72 71 69 69 72 73 73 73 73 73 73 73 73 73 73 73 73 73 77 74 74 73 71 70 71 73 73 72 73 73 72 72 72 71 71 71 70 70 70 70 70 71 71 70 70 70 69 70 70 70 70 70 72 72
72 72 72 72 72 72 72 72 71 71 70 69 69 69 68 68 67 68 67 67 68 68 68 67 66 67 69 70 71 71 72 72 68 65 66 68 72 72 72 73 73 73 72 72 72 72 72 72 72 75 77 74 73 70 69 68 69 69 70 73 74 73 72 72 71 71 71 71 71 70 70 71 71 71 70 71 70 70 69 70 70 70 70 70 70
71 72 72 72 73 73 72 72 72 71 71 70 70 69 69 68 68 68 68 68 68 68 67 67 67 67 68 69 70 71 71 69 65 64 65 65 68 72 72 72 72 72 72 72 72 72 72 72 72 72 73 74 73 73 70 69 67 67 67 68 69 71 72 72 71 71 71 71 71 71 71 71 72 69 70 70 70 69 69 69 70 71 70 69 69
72 72 72 72 73 73 73 72 72 72 71 71 70 70 69 69 68 68 68 68 68 68 68 67 68 68 68 68 69 70 70 67 64 63 64 64 64 69 71 72 72 72 72 72 72 72 72 72 71 72 71 76 76 74 73 72 68 65 65 66 67 67 66 67 68 72 72 72 71 71 72 71 71 71 70 69 68 68 68 69 69 70 70 70 69
71 72 72 73 73 73 73 72 72 72 72 71 71 70 70 69 69 68 69 69 68 68 67 67 68 68 68 69 69 69 70 67 63 62 62 62 63 66 71 71 71 71 72 72 72 72 72 71 71 71 71 72 72 73 73 72 72 71 70 69 69 70 69 66 66 67 70 72 72 71 72 70 69 68 69 69 68 68 68 70 70 70 70 70 70
70 72 73 73 73 73 73 73 72 72 72 72 71 71 70 70 69 69 68 68 68 68 67 67 67 68 68 69 69 69 70 66 62 61 60 60 61 64 70 71 71 71 72 72 72 72 72 72 71 71 71 71 71 72 71 71 71 71 70 70 70 70 70 70 71 71 71 71 71 71 71 69 69 69 69 70 70 70 71 72 73 71 71 70 67
69 70 72 73 73 73 73 73 72 72 72 72 71 71 70 70 70 69 69 68 68 68 68 67 67 68 68 69 69 69 70 64 61 60 60 59 60 67 70 70 70 71 71 72 72 72 72 71 71 71 71 71 71 68 71 72 71 70 70 70 70 70 70 71 67 68 72 71 70 70 70 70 68 71 72 70 70 71 74 72 70 69 68 65 64
68 69 71 72 73 73 73 73 72 72 72 71 71 71 71 70 70 70 69 68 68 68 68 67 67 67 68 69 69 69 69 65 60 59 59 59 60 67 69 70 70 70 70 71 72 72 72 72 71 71 71 71 69 64 64 71 71 70 70 70 70 70 70 70 66 64 64 64 63 64 64 64 63 63 63 64 70 71 72 70 71 69 67 65 63
69 69 69 71 73 73 73 73 73 72 72 71 71 71 71 71 70 70 69 68 68 68 68 68 67 67 67 68 69 69 69 66 59 58 58 58 63 68 69 70 70 70 70 71 71 71 73 75 75 71 71 71 66 63 63 67 69 70 70 70 70 70 70 71 72 71 63 63 63 63 63 63 64 63 63 63 62 69 72 70 70 68 68 65 63
70 69 69 71 72 73 73 73 73 72 72 72 71 71 71 71 70 70 70 69 68 69 69 69 68 68 67 68 71 69 69 67 59 58 57 57 62 69 70 70 70 71 71 71 71 72 72 74 76 74 72 70 65 63 62 65 69 69 69 70 70 70 71 72 73 74 72 71 71 71 71 69 70 69 70 66 64 70 71 72 71 70 69 67 65
71 71 71 71 72 73 73 73 73 72 72 72 72 71 71 71 70 70 70 70 69 69 69 69 69 68 68 68 69 70 70 70 66 58 57 56 58 70 71 71 71 71 71 72 72 72 72 72 72 68 66 65 63 61 60 60 68 69 69 70 70 70 71 73 74 75 74 74 73 73 73 72 72 71 71 71 70 71 70 71 72 71 70 69 66
71 72 71 72 73 73 73 73 73 73 72 72 72 72 72 71 71 70 70 70 69 69 69 69 69 69 69 68 68 69 70 70 69 58 56 56 57 63 71 71 71 72 72 72 72 72 72 72 72 68 63 62 60 59 58 57 62 70 70 69 70 70 71 73 74 78 74 73 72 72 72 71 72 72 72 72 72 72 72 71 71 72 71 69 66
71 72 72 72 72 73 73 73 73 73 73 73 72 72 72 72 71 71 70 70 70 69 69 69 69 69 69 69 68 68 70 68 70 60 57 56 56 57 69 72 72 72 72 72 72 72 72 72 71 68 62 60 59 57 55 56 58 67 70 63 63 64 70 72 72 73 73 72 71 71 71 71 71 72 73 73 73 73 74 73 71 72 71 69 65
71 72 73 73 72 73 73 73 73 73 73 73 73 72 72 72 72 71 71 70 70 69 69 69 69 69 69 69 69 69 69 70 65 67 57 55 55 55 60 67 66 72 72 72 72 72 73 72 72 68 62 59 57 56 56 56 58 64 61 61 61 62 69 72 72 72 72 72 72 72 71 71 72 73 73 71 65 64 69 73 72 70 68 67 65
73 74 74 73 72 72 73 73 73 73 73 73 73 72 72 72 72 72 71 70 70 69 69 69 69 69 69 69 69 69 69 69 65 63 63 55 55 54 56 59 63 70 72 72 72 72 72 73 71 64 61 58 57 57 57 57 63 58 56 59 61 64 70 72 71 72 71 71 71 71 71 71 72 72 72 68 63 65 67 67 66 67 66 67 67
72 73 74 74 73 72 72 73 73 73 73 73 73 73 72 72 72 72 71 70 70 69 69 69 68 69 69 69 69 69 70 69 69 65 61 58 55 54 55 56 58 61 70 72 72 72 68 65 63 61 61 58 57 57 57 57 56 57 57 59 66 69 70 72 72 71 71 71 71 71 71 72 73 73 72 65 65 66 67 67 67 66 67 67 67
69 70 73 74 74 72 71 72 73 73 73 73 73 73 73 72 72 72 71 71 70 70 69 69 68 69 69 69 69 69 70 70 70 70 64 60 57 55 55 55 58 59 65 70 68 66 64 62 61 61 61 62 65 66 67 68 61 59 59 62 66 69 70 71 71 71 71 71 70 70 71 71 71 73 69 65 66 66 65 65 66 66 65 63 62
66 68 70 73 74 73 71 71 72 73 74 74 74 74 73 73 72 72 71 71 70 70 69 69 69 68 69 69 69 70 70 70 70 71 69 66 63 61 57 58 57 58 63 68 68 69 68 68 67 64 65 65 66 66 66 66 66 65 64 65 67 69 70 71 72 72 71 71 70 71 70 71 71 69 66 65 65 65 65 65 65 64 63 62 62
64 66 68 71 73 72 71 71 72 73 74 74 74 74 73 73 72 72 71 71 71 70 69 69 68 68 68 69 70 70 70 70 70 70 70 69 67 65 63 62 62 63 64 67 69 71 72 68 64 67 67 67 67 67 67 67 67 66 66 66 67 69 71 73 73 71 72 72 72 71 70 70 69 69 66 65 65 65 66 65 64 64 63 63 62
64 65 68 72 73 72 71 71 72 73 73 74 74 74 73 73 73 73 72 72 72 71 70 70 69 68 68 69 69 70 70 70 71 65 70 64 66 67 65 64 64 65 63 62 69 70 68 68 69 68 68 69 68 68 67 67 66 66 66 67 68 69 70 72 72 71 71 71 71 71 71 70 69 68 65 64 65 65 65 64 64 63 63 61 61
63 65 69 72 73 72 71 71 72 73 73 74 74 74 72 66 70 73 73 69 66 64 63 70 70 69 69 69 70 69 70 70 64 60 59 57 57 59 59 59 58 63 61 58 64 70 70 70 70 70 70 69 69 69 68 68 68 67 67 65 68 69 70 70 71 71 71 71 71 70 71 70 69 67 65 64 65 64 63 62 62 63 62 61 61
64 66 70 72 71 72 72 71 72 73 73 74 74 73 74 69 59 63 67 68 63 59 57 59 60 63 68 69 67 62 62 62 61 57 56 55 55 55 55 55 55 55 56 61 66 68 70 70 70 70 70 70 70 70 70 69 68 68 68 68 68 68 68 69 70 70 70 70 70 71 70 69 68 66 65 64 64 63 62 62 63 63 61 61 61
63 66 69 70 70 70 72 72 72 73 73 74 74 73 74 73 68 55 49 60 61 55 55 56 56 56 58 62 67 68 61 56 56 54 55 54 53 53 53 53 53 53 52 57 66 67 69 70 70 70 70 70 70 70 70 70 69 69 69 69 69 69 68 69 69 71 70 70 70 70 69 68 67 65 65 64 63 63 62 62 62 62 62 62 61
63 66 69 70 70 70 72 72 72 73 73 73 74 74 74 73 72 71 65 52 54 56 54 53 53 54 55 55 55 59 60 58 53 51 53 53 52 52 52 51 51 49 52 61 66 67 68 69 70 70 70 70 70 70 70 71 70 70 70 70 70 69 70 70 69 71 70 70 70 70 68 67 65 64 64 64 63 63 62 61 61 62 62 61 62
65 67 69 70 71 70 69 68 69 70 72 74 74 73 73 74 73 73 71 69 67 60 56 54 54 53 52 51 52 53 55 55 53 51 50 52 51 51 50 54 47 47 55 65 66 67 68 69 69 70 70 70 70 70 70 70 70 70 70 70 70 70 70 70 70 70 69 69 69 69 67 66 64 64 64 64 64 63 62 61 61 61 62 61 61
64 69 72 73 72 70 69 68 69 69 68 68 69 70 71 72 73 73 72 71 71 71 71 64 53 52 62 59 54 51 50 52 52 51 50 51 51 48 50 59 60 59 58 62 65 66 67 68 68 69 70 70 70 70 70 69 68 68 69 69 70 70 70 70 69 69 69 68 68 67 65 64 64 63 63 63 62 61 61 61 62 61 61 62 60
62 64 68 71 72 69 69 68 68 69 68 68 68 69 70 70 71 71 70 71 72 72 71 70 66 53 51 52 51 51 51 49 49 50 50 50 48 51 62 63 64 63 62 63 64 66 67 68 68 69 69 70 71 70 69 68 69 69 69 69 70 69 70 69 69 69 68 68 67 65 63 64 64 62 62 62 62 61 60 60 61 62 62 61 58
61 62 64 66 70 70 70 69 69 69 68 68 68 68 69 69 70 70 70 70 70 71 70 65 62 63 59 59 53 49 50 52 50 49 48 47 47 58 66 66 66 66 64 64 65 66 67 68 69 69 69 70 70 69 68 68 68 68 66 69 69 69 69 69 69 67 67 66 66 64 63 64 62 61 60 60 60 60 60 60 60 61 61 60 57
60 61 61 62 64 68 69 69 69 67 68 68 68 68 68 69 69 69 69 69 69 69 68 66 66 68 68 66 62 61 52 45 48 48 47 46 50 60 65 67 67 67 66 66 66 66 67 68 69 70 70 70 69 68 68 68 68 68 68 68 68 68 66 66 65 67 67 67 65 63 63 62 62 62 60 59 59 59 60 60 60 60 59 58 55
59 59 59 59 60 64 69 69 68 67 67 67 67 67 67 68 68 69 69 69 68 69 68 67 67 68 69 66 61 59 61 63 64 65 61 59 60 62 65 67 68 68 68 67 67 67 68 69 69 70 70 70 68 67 67 68 68 68 67 66 66 65 65 66 66 66 65 64 63 63 62 63 63 61 60 59 59 60 60 59 58 58 57 55 55
58 58 59 59 60 62 67 68 67 67 67 67 67 67 67 67 67 68 68 68 68 68 68 67 67 68 69 64 63 63 67 67 67 66 64 62 63 64 66 68 69 68 68 68 68 68 68 68 67 67 67 67 68 68 67 68 68 68 68 66 66 65 65 65 65 65 64 64 63 63 63 63 61 61 60 60 59 58 58 59 58 57 56 55 55
57 57 60 58 58 60 65 68 67 67 67 67 67 67 67 67 68 68 68 68 68 68 67 67 68 69 65 61 56 59 68 69 68 66 65 65 65 66 67 68 69 68 68 68 68 68 67 65 65 65 65 65 66 67 67 67 67 67 67 66 65 65 65 65 65 65 64 63 62 62 63 63 61 61 61 60 59 59 59 59 58 57 56 56 57
56 56 57 58 58 59 61 66 67 67 67 67 68 68 68 68 68 68 68 68 67 67 67 67 67 65 58 53 51 53 65 68 67 66 66 65 65 64 63 63 63 64 65 66 66 66 65 64 64 64 64 65 65 65 66 66 66 66 66 66 65 64 64 65 65 64 64 63 62 62 62 61 61 61 61 59 60 59 59 57 56 56 56 55 55
56 55 56 58 57 57 58 59 63 66 67 67 67 68 68 68 68 68 67 67 67 67 67 66 63 63 60 54 55 56 66 66 66 64 64 63 62 61 61 61 61 61 61 61 62 62 61 59 58 58 58 59 60 62 64 65 65 65 64 63 64 64 64 63 63 63 63 63 63 61 61 61 61 61 60 60 60 59 58 58 58 58 56 56 56
54 54 55 56 56 56 57 57 59 61 63 65 67 66 67 66 67 67 66 66 65 65 65 64 63 63 61 59 59 61 63 62 62 61 61 60 60 60 60 60 59 59 58 58 58 58 57 56 55 55 55 56 56 57 59 60 62 62 62 61 60 60 61 62 62 62 62 62 62 61 61 60 60 61 60 59 60 59 59 58 58 57 55 52 51
52 53 53 53 54 54 55 56 56 58 60 62 63 64 65 65 65 64 63 63 63 63 63 63 63 62 61 61 61 60 60 60 59 59 58 58 57 57 57 56 56 56 55 55 55 55 55 54 54 53 52 52 52 52 52 53 54 56 58 59 59 58 59 59 59 60 61 61 61 61 61 60 58 57 57 56 57 56 55 53 52 52 49 49 49
52 52 52 52 52 53 53 54 55 55 56 57 60 61 63 63 63 62 62 61 61 60 60 60 60 59 59 58 58 58 57 57 56 56 55 55 54 53 53 52 52 51 51 51 51 51 51 51 51 50 49 48 47 47 47 47 48 49 50 52 53 54 55 56 58 58 58 59 58 57 56 54 54 54 56 54 52 52 52 52 52 52 50 49 49
50 51 51 51 50 51 52 52 53 53 53 55 56 57 58 60 60 60 59 59 58 58 58 57 57 57 57 56 56 55 55 54 53 53 52 51 50 50 49 49 48 48 48 48 47 47 47 46 46 45 44 44 43 43 43 43 44 44 45 44 46 50 53 55 56 56 56 56 56 57 55 55 55 55 54 52 52 51 51 51 51 50 50 50 49
49 50 49 50 49 49 49 50 50 51 51 52 52 53 54 56 57 57 57 57 57 56 56 56 55 55 54 54 54 53 53 52 51 51 50 49 48 48 47 47 46 46 46 46 46 45 45 46 45 45 45 45 45 44 42 40 40 39 39 39 42 44 46 50 56 56 56 55 54 54 54 51 51 50 50 50 50 50 49 50 51 50 50 50 50
48 48 48 48 48 48 48 48 49 49 49 50 50 50 51 51 52 53 53 54 54 54 54 53 53 53 52 52 52 51 51 50 49 49 48 47 47 47 46 46 45 45 44 43 42 42 40 41 42 41 41 41 42 40 39 39 39 38 38 39 39 40 40 45 49 52 50 52 52 51 51 51 50 50 50 50 50 50 50 50 50 51 51 51 51
48 48 47 48 47 47 48 48 47 48 49 49 48 48 49 49 49 50 50 50 51 51 51 51 51 50 50 50 49 49 48 48 47 47 46 46 46 45 44 43 42 42 41 41 41 42 41 41 41 41 40 39 38 37 37 37 36 36 37 37 37 36 37 39 41 45 50 51 51 50 50 50 50 50 50 50 50 50 50 50 50 50 50 50 50
47 47 46 47 46 46 46 46 45 46 46 47 47 47 47 47 47 48 48 48 48 48 49 49 48 49 48 48 48 47 46 46 46 45 44 43 43 43 43 42 42 42 41 40 40 40 41 42 41 39 41 42 42 42 41 41 40 36 37 37 35 35 35 38 42 38 42 45 49 49 48 49 49 49 50 50 49 49 50 50 50 49 50 50 50